Probability
0 0 0 0 0 0 0 0 0 0 0 0 0 0 1 1 1 3 5 7 11 14 17 19 20 23 27 31 35 35 31 25 18 13 10 8 7 6 7 9 10 7 3 2
0 0 0 0 0 0 0 0 0 0 0 0 0 1 2 1 1 2 5 8 12 15 21 24 24 25 28 34 39 39 35 30 24 18 15 12 9 8 8 12 14 11 6 5
0 0 0 0 0 0 1 0 0 0 0 0 0 1 1 1 0 1 4 8 11 15 23 27 27 28 31 35 40 42 41 36 29 24 20 16 13 10 11 17 20 15 10 8
0 0 0 0 0 0 0 0 0 0 0 0 0 0 0 0 0 1 3 7 9 13 20 25 28 30 31 33 38 43 44 40 34 28 22 18 16 14 15 19 20 17 12 10
0 0 0 0 0 0 0 0 0 0 0 0 0 0 0 0 0 0 2 6 9 12 18 23 29 32 30 30 34 43 47 45 39 32 25 20 18 18 18 19 18 17 15 13
0 0 0 0 0 0 0 0 0 0 0 0 0 0 0 0 0 0 2 6 9 13 18 25 31 34 30 28 32 41 49 50 44 36 29 23 20 19 20 19 17 16 16 16
0 0 0 0 0 0 0 0 0 0 0 0 0 0 0 0 1 1 2 6 10 14 19 27 34 36 32 30 33 41 50 53 48 40 32 26 22 19 19 18 16 15 15 15
0 0 0 0 0 0 0 0 0 0 0 0 0 0 0 1 1 2 4 7 11 15 20 27 33 36 35 35 39 47 55 56 51 43 38 33 28 22 19 18 16 14 13 12
0 0 0 0 0 0 0 0 0 0 0 0 0 1 1 1 2 3 5 8 12 16 20 24 29 33 37 41 46 53 60 62 55 49 45 41 35 29 23 20 20 18 17 17
0 0 0 0 0 0 0 0 0 0 0 0 1 1 1 0 1 2 5 9 13 16 20 23 25 30 36 44 52 58 63 65 60 53 49 45 41 36 31 28 27 26 24 23
0 0 0 0 0 0 0 0 0 0 0 0 1 2 1 1 1 3 7 11 15 17 21 25 27 30 37 46 55 62 64 65 61 55 51 48 46 44 40 37 34 31 26 24
0 0 0 0 0 0 0 0 0 0 1 0 1 3 3 3 5 8 12 15 19 20 23 30 33 37 44 50 58 64 65 64 60 56 55 53 52 51 48 43 38 32 27 25
0 0 0 0 0 0 0 0 0 0 0 0 2 5 6 7 11 16 19 21 24 27 30 36 41 48 55 59 63 66 67 65 61 59 60 60 60 58 54 47 41 36 31 30
0 0 0 0 0 0 0 0 0 0 0 1 3 6 9 12 17 22 25 27 30 36 42 44 50 59 65 68 68 67 67 67 66 64 65 67 66 62 56 51 47 43 39 37
0 0 0 0 0 0 0 0 0 0 0 1 4 7 11 15 20 25 28 31 35 42 48 53 60 68 72 72 69 66 67 70 71 70 70 70 67 61 57 54 50 48 45 43
0 0 0 0 0 0 0 0 0 1 1 2 4 7 11 17 23 30 34 37 39 43 50 59 69 77 78 75 71 69 69 72 73 74 72 69 64 60 57 54 51 49 47 45
2 2 1 0 0 0 0 1 1 2 3 4 5 8 13 18 27 38 45 48 48 50 57 66 75 82 81 76 73 71 71 73 75 76 75 70 65 60 55 52 51 49 46 43
5 6 3 0 0 0 2 3 3 4 6 7 8 11 15 20 29 42 51 55 58 63 68 72 74 76 77 75 74 73 74 75 78 79 78 74 67 61 55 52 49 46 42 38
6 7 4 0 0 1 4 5 5 7 11 13 14 16 18 21 29 41 50 56 63 70 73 71 67 67 71 73 75 77 78 79 81 81 79 75 71 64 57 51 45 40 36 34
4 5 3 0 0 2 5 6 6 9 17 21 22 24 26 28 35 45 53 57 64 69 69 65 64 66 70 75 78 80 81 81 81 80 77 75 72 65 57 49 43 38 35 33
1 2 1 0 1 4 7 10 14 22 32 34 32 33 36 40 46 51 54 59 63 65 63 62 65 70 74 78 79 81 82 80 79 79 75 72 70 65 58 51 46 41 38 37
1 2 2 3 6 11 16 21 29 40 45 42 37 36 38 43 48 50 52 57 60 60 61 62 67 72 75 77 78 80 81 81 80 78 74 70 67 64 60 55 51 46 42 40
5 6 7 9 14 20 25 29 34 40 41 36 34 32 32 36 42 45 49 54 55 56 59 64 69 73 75 75 75 77 80 82 81 77 72 68 64 62 60 57 52 48 43 41
6 8 11 15 18 20 23 25 25 27 27 25 26 26 27 32 38 43 47 49 50 51 55 63 70 74 76 74 73 74 76 80 79 75 70 64 61 60 58 54 49 44 41 40
4 7 12 19 21 19 19 20 19 19 20 21 22 25 27 31 35 40 43 44 44 45 50 60 67 70 72 73 70 70 73 75 75 72 65 58 56 56 54 51 44 38 35 34
4 6 12 22 27 24 22 21 19 17 20 22 24 27 30 32 34 37 40 41 42 42 47 57 64 65 67 70 68 67 70 73 72 69 62 54 52 53 51 48 42 34 30 27
Wind_Speed
12 11 11 9 8 7 5 3 2 4 7 4 4 8 12 13 11 12 12 12 12 11 11 10 9 9 9 8 7 5 4 4 2 1 1 1 1 1 1 2 2 2 1 0
12 13 12 9 7 7 7 4 4 5 6 4 3 5 10 13 12 11 12 13 12 12 11 11 10 9 10 9 8 7 5 4 4 2 1 1 1 1 2 1 2 2 1 1
16 12 10 10 9 8 9 7 5 3 4 5 5 5 7 12 11 11 11 13 14 14 14 13 12 10 10 10 9 7 6 5 4 4 3 2 1 0 0 2 2 2 1 1
15 13 9 10 10 10 9 6 6 5 5 5 5 4 8 11 11 12 12 12 13 14 15 14 13 11 10 10 9 7 7 5 4 4 3 3 2 2 2 1 2 2 2 1
14 13 11 12 12 11 9 6 7 7 6 7 4 3 4 7 9 11 12 13 13 13 14 14 14 12 11 10 10 8 7 6 5 4 4 3 2 2 1 1 2 2 2 1
15 13 13 13 12 10 8 8 8 7 6 7 7 5 3 4 6 8 9 11 12 13 14 13 13 12 11 10 10 10 8 6 5 5 4 3 2 1 1 1 1 2 2 1
17 16 13 12 13 12 11 9 7 7 6 7 8 6 5 7 8 9 8 9 11 12 13 14 14 13 11 11 10 10 9 7 7 6 5 4 4 3 2 1 2 1 1 1
16 16 14 13 13 11 13 13 10 7 6 5 6 4 4 7 8 8 8 8 10 11 11 13 14 13 12 12 11 10 10 8 7 7 5 4 4 3 2 2 1 1 1 2
13 14 14 15 14 13 13 13 14 11 11 7 5 3 2 4 7 8 8 10 10 10 11 12 14 14 13 12 11 10 10 9 8 7 6 5 4 3 2 2 1 1 2 2
14 11 13 13 14 16 15 12 9 8 7 9 5 5 5 7 7 6 7 9 11 10 10 10 11 13 13 13 11 10 10 9 8 7 7 6 5 4 3 2 2 2 2 2
17 13 12 14 15 15 15 15 11 7 7 8 6 4 3 5 5 6 7 6 8 10 10 9 9 10 11 12 12 10 10 10 8 8 6 5 6 5 5 3 3 3 2 2
12 11 12 13 12 14 15 16 14 9 7 8 7 4 4 4 5 5 5 8 7 8 8 9 10 10 10 11 11 11 10 10 9 7 7 6 5 5 5 4 4 3 3 2
7 9 11 12 12 15 15 15 16 14 10 9 10 4 5 3 3 3 4 7 7 7 7 7 8 9 8 8 9 9 10 10 10 9 8 7 6 5 5 4 4 3 3 2
6 9 12 13 10 11 14 16 16 15 10 9 10 6 5 4 3 4 4 5 7 7 6 6 7 7 7 7 7 7 8 8 8 9 8 7 6 5 5 5 4 3 3 3
8 11 14 16 15 13 14 15 16 16 14 11 10 9 6 5 3 4 4 3 5 6 7 6 5 6 7 7 7 7 7 7 7 8 8 8 7 6 6 5 5 4 3 4
8 9 12 16 17 16 15 15 15 15 13 13 12 7 1 4 4 5 4 1 2 4 5 6 6 6 7 7 8 8 8 8 8 8 8 8 8 7 6 6 5 5 4 4
8 8 11 14 16 16 18 15 15 12 11 11 10 5 2 3 3 4 4 2 2 1 3 3 4 5 6 6 6 6 7 8 8 8 7 8 8 8 7 7 6 5 4 4
7 7 8 12 14 18 12 9 10 10 9 8 6 3 2 4 4 4 4 3 2 2 2 2 2 4 5 6 7 7 7 7 8 8 8 8 8 8 7 6 6 5 5 4
8 7 9 11 14 16 11 10 10 9 7 5 4 2 2 3 4 5 4 3 2 2 2 1 0 3 4 5 6 7 7 7 8 7 7 7 7 7 7 7 6 5 5 5
10 7 9 11 14 13 7 5 4 6 6 2 2 1 2 3 3 3 5 4 3 3 3 2 1 0 2 4 5 6 6 7 7 7 6 6 6 7 7 7 6 5 5 5
12 11 13 14 13 9 6 5 5 8 2 2 1 2 2 3 3 4 5 4 3 3 3 2 1 1 2 3 4 5 5 5 5 5 6 6 6 6 6 6 6 6 5 5
11 11 12 12 13 7 4 3 1 3 4 3 3 3 3 3 4 5 5 4 3 4 4 3 2 2 2 3 3 4 4 4 5 6 6 6 6 6 6 6 6 6 6 6
8 5 4 4 2 3 5 5 4 3 4 4 3 2 2 2 3 3 4 4 3 3 3 3 3 2 2 3 3 4 3 5 6 6 6 6 6 5 6 7 7 6 6 6
5 3 3 2 1 1 2 3 2 2 2 2 2 1 1 1 2 3 3 3 3 3 3 3 2 2 2 2 3 3 4 4 5 5 5 5 6 6 6 5 6 6 6 6
3 4 6 5 4 2 1 1 2 3 3 3 3 2 1 1 1 1 2 2 2 2 2 2 2 1 1 1 2 3 3 4 5 4 4 4 5 5 5 4 3 5 4 4
5 5 5 3 1 2 1 2 3 3 3 3 3 3 3 2 2 1 1 2 2 1 2 2 2 2 2 0 2 2 3 4 5 5 4 4 4 4 4 4 3 2 2 4
Wind_Direction
226 232 239 241 235 249 239 241 163 141 145 190 184 159 163 167 177 171 171 172 169 170 168 160 159 154 152 149 152 161 169 155 164 184 184 187 182 195 176 167 150 166 212 217
230 235 239 250 251 257 258 244 223 172 159 195 201 192 171 169 179 177 173 172 171 167 160 163 163 166 162 158 161 166 169 163 171 179 177 179 196 219 174 143 144 163 170 261
232 232 233 241 242 248 257 252 248 218 183 209 209 217 187 171 176 179 179 173 172 174 169 168 172 175 171 166 167 169 164 165 177 177 181 189 168 242 183 166 147 153 160 188
239 237 229 239 241 247 252 246 257 247 233 242 219 206 192 176 179 182 185 181 176 174 169 170 173 176 176 170 166 161 160 166 171 173 187 199 185 190 197 182 142 155 170 195
235 232 221 237 241 241 256 261 257 258 254 266 246 231 210 175 181 185 186 183 178 173 168 170 171 171 176 173 167 161 158 164 167 179 193 205 218 200 177 150 140 148 153 184
247 236 225 232 239 242 251 258 258 258 259 262 252 237 188 190 188 181 185 182 174 170 164 166 165 164 172 170 167 163 158 164 170 179 187 194 217 203 140 142 154 179 157 146
236 240 226 227 234 225 234 237 241 236 232 238 241 238 177 173 175 186 172 170 167 163 163 165 165 166 170 171 170 164 159 167 175 182 189 188 198 194 191 198 193 204 139 122
225 228 222 222 232 228 228 236 244 254 249 230 237 227 181 157 160 171 159 165 163 160 163 166 166 167 171 172 168 164 160 168 177 181 184 182 183 195 184 188 209 141 89 85
235 228 217 218 225 236 234 238 250 257 266 254 218 206 225 179 170 164 161 158 155 158 163 167 167 172 172 172 170 165 159 166 174 177 172 178 182 179 161 155 172 111 104 122
257 255 229 216 219 228 243 247 253 256 267 271 238 217 209 192 183 161 162 161 155 157 160 165 169 172 171 171 165 162 161 165 169 171 177 178 176 167 169 157 130 108 93 80
245 255 244 223 216 225 228 239 246 257 258 262 260 244 175 173 166 182 178 157 152 157 157 161 165 163 163 164 164 162 160 163 168 174 176 168 167 168 167 163 152 136 128 131
241 252 252 239 231 229 234 238 238 241 251 260 260 238 201 179 178 195 169 145 153 153 151 156 155 154 158 161 163 163 166 169 172 171 165 168 166 165 166 163 155 148 148 152
253 255 253 239 234 226 232 240 245 243 241 245 255 229 161 175 169 138 136 133 140 136 141 148 148 151 156 157 155 160 169 171 173 169 169 170 169 166 164 153 145 150 145 136
265 251 254 249 234 228 227 235 243 249 246 243 248 231 190 181 153 132 126 122 136 135 137 145 144 148 148 147 147 156 163 165 169 167 170 167 166 161 152 147 149 151 143 137
248 247 254 264 261 251 243 238 238 244 249 247 245 243 211 155 137 112 105 120 131 138 142 139 143 143 147 149 154 163 162 161 163 166 169 164 162 158 154 154 151 146 145 141
230 260 259 259 262 259 257 246 241 239 244 245 249 252 191 131 129 117 115 123 114 131 143 145 147 148 155 162 170 168 167 163 161 168 171 163 163 162 162 160 155 152 147 138
225 238 255 256 255 258 252 248 243 239 241 242 246 248 171 137 112 105 114 119 112 99 119 133 147 155 163 170 168 169 169 163 162 167 170 167 166 166 166 167 160 157 156 149
244 248 250 253 254 249 252 258 251 245 246 246 246 236 186 142 125 94 84 83 72 76 66 93 151 161 170 175 175 173 173 169 168 170 174 171 169 164 161 162 162 161 158 156
225 238 248 250 247 245 244 245 243 241 241 257 257 250 220 183 144 106 82 81 71 60 63 44 225 188 175 176 174 169 172 172 172 173 174 169 165 162 164 167 165 161 162 163
211 212 238 246 250 249 250 252 267 259 233 247 253 273 287 282 229 104 70 57 47 46 56 42 7 191 162 165 163 168 175 176 178 172 165 157 162 166 168 165 165 164 165 168
205 207 225 242 248 252 270 258 235 241 225 49 65 60 17 27 35 67 69 60 40 40 40 35 21 45 101 126 150 165 180 182 169 153 153 160 167 169 168 163 169 169 171 171
216 214 217 236 245 244 324 269 245 71 59 54 53 58 48 46 67 72 70 54 39 39 30 28 52 67 88 114 147 166 175 163 150 154 161 165 170 179 170 166 172 173 174 178
231 236 236 242 233 64 41 57 62 63 61 42 34 32 33 57 72 63 58 46 34 38 35 27 44 73 105 125 146 167 163 155 158 162 167 168 171 175 169 173 177 179 184 191
223 231 240 252 197 58 56 52 27 34 34 4 338 4 47 30 48 53 55 41 29 30 33 31 38 47 58 109 140 154 158 163 165 169 168 165 171 178 177 181 184 189 193 197
262 234 232 227 231 236 254 347 338 2 348 332 329 334 312 323 358 68 81 65 34 20 23 16 11 13 42 87 125 148 156 160 165 167 169 174 183 182 178 179 190 192 196 201
269 260 248 245 272 283 318 335 319 322 328 346 335 333 329 318 315 310 68 78 56 19 21 6 349 342 343 66 151 156 154 159 165 168 173 185 190 185 181 178 180 164 192 192